Le nostre stazioni meteo in Italia

Pubblicità
Il mio iltempo24.it
Termoli, Italia (16232): Temperatura & dewpoint: 05.12.2018 02:00:00 - 11.12.2018 02:00:00 (CET)Termoli, Italia (16232): velocità del vento: 05.12.2018 02:00:00 - 11.12.2018 02:00:00 (CET)Termoli, Italia (16232): direzione del vento: 05.12.2018 02:00:00 - 11.12.2018 02:00:00 (CET)Termoli, Italia (16232): reduced air pressure: 05.12.2018 02:00:00 - 11.12.2018 02:00:00 (CET)Termoli, Italia (16232): visibility: 05.12.2018 02:00:00 - 11.12.2018 02:00:00 (CET)Termoli, Italia (16232): ore di luce: 05.12.2018 02:00:00 - 11.12.2018 02:00:00 (CET)
Data & Tempo tt [°C] td [°C] ff [km/h] ff [kn] dd ppp [hPa] vv [km] sd [min]
11.12.2018 02:00:00 - - - - - - - -
11.12.2018 01:00:00 - - - - - - - -
11.12.2018 00:00:00 - - - - - - - -
10.12.2018 23:00:00 - - - - - - - -
10.12.2018 22:00:00 - - - - - - - -
10.12.2018 21:00:00 - - - - - - - -
10.12.2018 20:00:00 - - - - - - - -
10.12.2018 19:00:00 9,4 8,9 15 8 SSO 1014,6 4,0 -
10.12.2018 18:00:00 - - - - - - - -
10.12.2018 17:00:00 - - - - - - - -
10.12.2018 16:00:00 14,6 11,2 39 21 ONO 1011,3 15 0
10.12.2018 15:00:00 - - - - - - - -
10.12.2018 14:00:00 - - - - - - - -
10.12.2018 13:00:00 15,6 8,6 35 19 NNO 1011,3 20 60
10.12.2018 12:00:00 - - - - - - - -
10.12.2018 11:00:00 - - - - - - - -
10.12.2018 10:00:00 15,2 5,4 44 24 NO 1010,7 20 60
10.12.2018 09:00:00 - - - - - - - -
10.12.2018 08:00:00 - - - - - - - -
10.12.2018 07:00:00 13,2 -1,5 24 13 O 1013,2 25 -
10.12.2018 06:00:00 - - - - - - - -
10.12.2018 05:00:00 - - - - - - - -
10.12.2018 04:00:00 - - - - - - - -
10.12.2018 03:00:00 - - - - - - - -
10.12.2018 02:00:00 - - - - - - - -
10.12.2018 01:00:00 - - - - - - - -
10.12.2018 00:00:00 - - - - - - - -
09.12.2018 23:00:00 - - - - - - - -
09.12.2018 22:00:00 - - - - - - - -
09.12.2018 21:00:00 - - - - - - - -
09.12.2018 20:00:00 - - - - - - - -
09.12.2018 19:00:00 16,2 -0,1 11 6 SO 1006,2 25 -
09.12.2018 18:00:00 - - - - - - - -
09.12.2018 17:00:00 - - - - - - - -
09.12.2018 16:00:00 17,8 3,3 9 5 NNE 1006,4 20 60
09.12.2018 15:00:00 - - - - - - - -
09.12.2018 14:00:00 - - - - - - - -
09.12.2018 13:00:00 18,8 -0,6 21 11 SSO 1006,4 25 60
09.12.2018 12:00:00 - - - - - - - -
09.12.2018 11:00:00 - - - - - - - -
09.12.2018 10:00:00 15,0 -7,1 18 10 SSO 1009,5 25 60
09.12.2018 09:00:00 - - - - - - - -
09.12.2018 08:00:00 - - - - - - - -
09.12.2018 07:00:00 12,0 -6,4 21 11 S 1013,4 20 -
09.12.2018 06:00:00 - - - - - - - -
09.12.2018 05:00:00 - - - - - - - -
09.12.2018 04:00:00 - - - - - - - -
09.12.2018 03:00:00 - - - - - - - -
09.12.2018 02:00:00 - - - - - - - -
09.12.2018 01:00:00 - - - - - - - -
09.12.2018 00:00:00 - - - - - - - -
08.12.2018 23:00:00 - - - - - - - -
08.12.2018 22:00:00 - - - - - - - -
08.12.2018 21:00:00 - - - - - - - -
08.12.2018 20:00:00 - - - - - - - -
08.12.2018 19:00:00 13,6 9,5 67 36 ONO 1011,9 15 -
08.12.2018 18:00:00 - - - - - - - -
08.12.2018 17:00:00 - - - - - - - -
08.12.2018 16:00:00 13,6 9,7 46 25 ONO 1010,5 20 0
08.12.2018 15:00:00 - - - - - - - -
08.12.2018 14:00:00 - - - - - - - -
08.12.2018 13:00:00 16,0 12,6 26 14 NNO 1008,5 20 48
08.12.2018 12:00:00 - - - - - - - -
08.12.2018 11:00:00 - - - - - - - -
08.12.2018 10:00:00 18,0 8,3 15 8 O 1009,4 25 30
08.12.2018 09:00:00 - - - - - - - -
08.12.2018 08:00:00 - - - - - - - -
08.12.2018 07:00:00 15,6 6,1 18 10 SSO 1007,6 20 -
08.12.2018 06:00:00 - - - - - - - -
08.12.2018 05:00:00 - - - - - - - -
08.12.2018 04:00:00 - - - - - - - -
08.12.2018 03:00:00 - - - - - - - -
08.12.2018 02:00:00 - - - - - - - -
08.12.2018 01:00:00 - - - - - - - -
08.12.2018 00:00:00 - - - - - - - -
07.12.2018 23:00:00 - - - - - - - -
07.12.2018 22:00:00 - - - - - - - -
07.12.2018 21:00:00 - - - - - - - -
07.12.2018 20:00:00 - - - - - - - -
07.12.2018 19:00:00 13,4 11,6 15 8 SSE 1018,6 15 -
07.12.2018 18:00:00 - - - - - - - -
07.12.2018 17:00:00 - - - - - - - -
07.12.2018 16:00:00 15,4 9,5 9 5 E 1019,8 18 60
07.12.2018 15:00:00 - - - - - - - -
07.12.2018 14:00:00 - - - - - - - -
07.12.2018 13:00:00 14,6 9,4 4 2 N 1021,5 18 60
07.12.2018 12:00:00 - - - - - - - -
07.12.2018 11:00:00 - - - - - - - -
07.12.2018 10:00:00 13,6 8,0 5 3 SE 1022,5 18 60
07.12.2018 09:00:00 - - - - - - - -
07.12.2018 08:00:00 - - - - - - - -
07.12.2018 07:00:00 11,4 9,5 16 9 O 1023,4 15 -
07.12.2018 06:00:00 - - - - - - - -
07.12.2018 05:00:00 - - - - - - - -
07.12.2018 04:00:00 - - - - - - - -
07.12.2018 03:00:00 - - - - - - - -
07.12.2018 02:00:00 - - - - - - - -
07.12.2018 01:00:00 - - - - - - - -
07.12.2018 00:00:00 - - - - - - - -
06.12.2018 23:00:00 - - - - - - - -
06.12.2018 22:00:00 - - - - - - - -
06.12.2018 21:00:00 - - - - - - - -
06.12.2018 20:00:00 - - - - - - - -
06.12.2018 19:00:00 13,2 6,8 18 10 O 1021,6 20 -
06.12.2018 18:00:00 - - - - - - - -
06.12.2018 17:00:00 - - - - - - - -
06.12.2018 16:00:00 15,2 12,7 13 7 ONO 1021,2 20 0
06.12.2018 15:00:00 - - - - - - - -
06.12.2018 14:00:00 - - - - - - - -
06.12.2018 13:00:00 16,4 8,6 0 0 N 1021,2 30 18
06.12.2018 12:00:00 - - - - - - - -
06.12.2018 11:00:00 - - - - - - - -
06.12.2018 10:00:00 14,0 6,4 8 4 SE 1022,2 20 60
06.12.2018 09:00:00 - - - - - - - -
06.12.2018 08:00:00 - - - - - - - -
06.12.2018 07:00:00 12,0 8,5 5 3 SO 1023,3 20 0
06.12.2018 06:00:00 - - - - - - - -
06.12.2018 05:00:00 - - - - - - - -
06.12.2018 04:00:00 - - - - - - - -
06.12.2018 03:00:00 - - - - - - - -
06.12.2018 02:00:00 - - - - - - - -
06.12.2018 01:00:00 - - - - - - - -
06.12.2018 00:00:00 - - - - - - - -
05.12.2018 23:00:00 - - - - - - - -
05.12.2018 22:00:00 - - - - - - - -
05.12.2018 21:00:00 - - - - - - - -
05.12.2018 20:00:00 - - - - - - - -
05.12.2018 19:00:00 13,8 7,8 13 7 SSO 1025,3 12 -
05.12.2018 18:00:00 - - - - - - - -
05.12.2018 17:00:00 - - - - - - - -
05.12.2018 16:00:00 16,8 13,0 4 2 ONO 1024,3 12 60
05.12.2018 15:00:00 - - - - - - - -
05.12.2018 14:00:00 - - - - - - - -
05.12.2018 13:00:00 15,0 11,6 24 13 ONO 1025,2 3,0 60
05.12.2018 12:00:00 - - - - - - - -
05.12.2018 11:00:00 - - - - - - - -
05.12.2018 10:00:00 14,0 8,8 21 11 ONO 1025,3 7 60
05.12.2018 09:00:00 - - - - - - - -
05.12.2018 08:00:00 - - - - - - - -
05.12.2018 07:00:00 13,0 8,9 26 14 ONO 1023,4 8 0
05.12.2018 06:00:00 - - - - - - - -
05.12.2018 05:00:00 - - - - - - - -
05.12.2018 04:00:00 - - - - - - - -
05.12.2018 03:00:00 - - - - - - - -
05.12.2018 02:00:00 - - - - - - - -

tt = Temperatura
td = dewpoint
ff = velocità del vento
dd = direzione del vento
ppp = reduced air pressure
vv = visibility
sd = ore di luce

Stazioni seguenti

WeatherPro
AMSI
MeteoEarth